WZZ433 EYVI-LHBP

Flight info

Callsign WZZ433
Flight time 1h 27m
Altitude 36000
Route UPASI DCT TUNGA DCT SUWGI DCT BULEP DCT ASLUX DCT NEPOX DCT LIMVI DCT ORTEB/N0432F320 DCT KELEL DCT EDEMU
Aircraft A21N/M-SDE2E3FGHIRWXY/LB1

Departure

Time 2026-05-08 11:58
Airport Vilnius International Airport (EYVI)

Arrival

Time 2026-05-08 13:25
Airport Budapest Liszt Ferenc International Airport (LHBP)
Time Latitude Longitude Altitude Speed Heading
2026-05-08 11:40 54.64490 25.28176 639 ft 0 kts 270°
2026-05-08 11:46 54.64490 25.28191 639 ft 2 kts 271°
2026-05-08 11:46 54.64490 25.28217 639 ft 2 kts 269°
2026-05-08 11:46 54.64490 25.28235 639 ft 0 kts 270°
2026-05-08 11:47 54.64493 25.28259 639 ft 2 kts 230°
2026-05-08 11:47 54.64505 25.28273 640 ft 2 kts 189°
2026-05-08 11:47 54.64512 25.28273 640 ft 1 kts 173°
2026-05-08 11:47 54.64516 25.28273 640 ft 0 kts 178°
2026-05-08 11:51 54.64507 25.28273 640 ft 3 kts 178°
2026-05-08 11:51 54.64473 25.28275 639 ft 6 kts 172°
2026-05-08 11:51 54.64470 25.28319 640 ft 4 kts 73°
2026-05-08 11:51 54.64481 25.28379 641 ft 6 kts 75°
2026-05-08 11:52 54.64495 25.28477 642 ft 10 kts 75°
2026-05-08 11:52 54.64509 25.28588 644 ft 6 kts 94°
2026-05-08 11:52 54.64472 25.28623 644 ft 8 kts 172°
2026-05-08 11:52 54.64395 25.28641 642 ft 13 kts 171°
2026-05-08 11:53 54.64294 25.28665 641 ft 15 kts 173°
2026-05-08 11:53 54.64180 25.28687 639 ft 16 kts 174°
2026-05-08 11:53 54.64059 25.28703 637 ft 18 kts 183°
2026-05-08 11:53 54.63924 25.28626 631 ft 22 kts 202°
2026-05-08 11:54 54.63770 25.28520 624 ft 25 kts 201°
2026-05-08 11:54 54.63600 25.28403 615 ft 27 kts 201°
2026-05-08 11:54 54.63423 25.28279 609 ft 28 kts 200°
2026-05-08 11:54 54.63242 25.28154 604 ft 27 kts 202°
2026-05-08 11:55 54.63066 25.28030 600 ft 27 kts 202°
2026-05-08 11:55 54.62892 25.27911 598 ft 26 kts 201°
2026-05-08 11:55 54.62725 25.27795 598 ft 25 kts 202°
2026-05-08 11:55 54.62571 25.27688 599 ft 19 kts 201°
2026-05-08 11:56 54.62468 25.27735 600 ft 16 kts 141°
2026-05-08 11:56 54.62401 25.27849 600 ft 7 kts 99°
2026-05-08 11:56 54.62427 25.27897 599 ft 0 kts 22°
2026-05-08 11:57 54.62495 25.27943 599 ft 37 kts 20°
2026-05-08 11:57 54.62977 25.28273 600 ft 107 kts 22°
2026-05-08 11:57 54.63844 25.28874 633 ft 160 kts 22°
2026-05-08 11:58 54.64920 25.29609 1103 ft 170 kts 22°
2026-05-08 11:58 54.66004 25.30329 1904 ft 168 kts 24°
2026-05-08 11:58 54.67057 25.31041 2678 ft 163 kts 26°
2026-05-08 11:59 54.69320 25.32616 3283 ft 189 kts 27°
2026-05-08 11:59 54.70608 25.33514 3520 ft 208 kts 26°
2026-05-08 11:59 54.71970 25.34461 3936 ft 219 kts 26°
2026-05-08 11:59 54.73394 25.35445 4528 ft 223 kts 25°
2026-05-08 12:00 54.74846 25.36444 5112 ft 228 kts 25°
2026-05-08 12:00 54.76320 25.37459 5695 ft 233 kts 24°
2026-05-08 12:00 54.77865 25.38443 6277 ft 239 kts 15°
2026-05-08 12:00 54.79541 25.38412 6819 ft 251 kts 346°
2026-05-08 12:01 54.81090 25.36924 7245 ft 268 kts 317°
2026-05-08 12:01 54.82034 25.34052 7570 ft 289 kts 283°
2026-05-08 12:01 54.81930 25.30607 8109 ft 296 kts 249°
2026-05-08 12:01 54.80904 25.27521 8767 ft 296 kts 233°
2026-05-08 12:02 54.79682 25.24694 9343 ft 300 kts 231°
2026-05-08 12:02 54.78403 25.21795 9951 ft 303 kts 231°
2026-05-08 12:02 54.77135 25.18873 10511 ft 307 kts 232°
2026-05-08 12:02 54.75847 25.15850 10791 ft 321 kts 232°
2026-05-08 12:03 54.74513 25.12679 11154 ft 331 kts 232°
2026-05-08 12:03 54.73163 25.09448 11752 ft 333 kts 232°
2026-05-08 12:03 54.71833 25.06256 12370 ft 333 kts 232°
2026-05-08 12:03 54.70484 25.03011 13002 ft 332 kts 232°
2026-05-08 12:04 54.69143 24.99793 13598 ft 332 kts 232°
2026-05-08 12:04 54.67793 24.96548 14166 ft 333 kts 232°
2026-05-08 12:04 54.66436 24.93302 14706 ft 335 kts 232°
2026-05-08 12:04 54.65072 24.90035 15194 ft 338 kts 232°
2026-05-08 12:05 54.63686 24.86727 15681 ft 341 kts 231°
2026-05-08 12:05 54.62303 24.83427 16204 ft 341 kts 232°
2026-05-08 12:05 54.60907 24.80102 16747 ft 341 kts 231°
2026-05-08 12:05 54.59518 24.76790 17203 ft 343 kts 232°
2026-05-08 12:06 54.58123 24.73473 17679 ft 345 kts 232°
2026-05-08 12:06 54.56710 24.70120 18123 ft 347 kts 232°
2026-05-08 12:06 54.55303 24.66780 18597 ft 347 kts 232°
2026-05-08 12:06 54.53887 24.63422 19042 ft 349 kts 232°
2026-05-08 12:07 54.52465 24.60058 19464 ft 351 kts 231°
2026-05-08 12:07 54.51025 24.56663 19843 ft 353 kts 231°
2026-05-08 12:07 54.49581 24.53259 20212 ft 356 kts 232°
2026-05-08 12:07 54.48107 24.49790 20581 ft 358 kts 231°
2026-05-08 12:08 54.46647 24.46348 20988 ft 360 kts 231°
2026-05-08 12:08 54.45156 24.42850 21342 ft 362 kts 231°
2026-05-08 12:08 54.43676 24.39378 21704 ft 364 kts 231°
2026-05-08 12:08 54.42192 24.35903 22064 ft 366 kts 231°
2026-05-08 12:09 54.40682 24.32366 22432 ft 368 kts 231°
2026-05-08 12:09 54.39312 24.28665 22769 ft 372 kts 238°
2026-05-08 12:09 54.38208 24.24642 23102 ft 377 kts 245°
2026-05-08 12:09 54.37367 24.20387 23430 ft 381 kts 249°
2026-05-08 12:10 54.36599 24.16021 23753 ft 383 kts 249°
2026-05-08 12:10 54.35835 24.11630 24077 ft 385 kts 250°
2026-05-08 12:10 54.35070 24.07246 24389 ft 387 kts 249°
2026-05-08 12:10 54.34297 24.02856 24720 ft 389 kts 249°
2026-05-08 12:11 54.33507 23.98392 25034 ft 391 kts 249°
2026-05-08 12:11 54.32714 23.93932 25309 ft 393 kts 249°
2026-05-08 12:11 54.31921 23.89488 25599 ft 395 kts 248°
2026-05-08 12:11 54.31114 23.84984 25885 ft 397 kts 249°
2026-05-08 12:12 54.30294 23.80423 26161 ft 399 kts 249°
2026-05-08 12:12 54.29473 23.75855 26433 ft 402 kts 249°
2026-05-08 12:12 54.28654 23.71312 26700 ft 404 kts 249°
2026-05-08 12:12 54.27831 23.66746 26981 ft 405 kts 248°
2026-05-08 12:13 54.26989 23.62110 27243 ft 407 kts 248°
2026-05-08 12:13 54.26141 23.57449 27494 ft 409 kts 248°
2026-05-08 12:13 54.25298 23.52832 27780 ft 410 kts 248°
2026-05-08 12:13 54.24450 23.48191 28047 ft 412 kts 248°
2026-05-08 12:14 54.23580 23.43573 28305 ft 412 kts 246°
2026-05-08 12:14 54.22554 23.38985 28541 ft 412 kts 243°
2026-05-08 12:14 54.21361 23.34505 28768 ft 412 kts 238°
2026-05-08 12:14 54.20023 23.30183 29000 ft 412 kts 236°
2026-05-08 12:15 54.18662 23.25961 29222 ft 413 kts 236°
2026-05-08 12:15 54.17271 23.21661 29457 ft 415 kts 236°
2026-05-08 12:15 54.15873 23.17349 29697 ft 416 kts 236°
2026-05-08 12:15 54.14466 23.13007 29908 ft 418 kts 236°
2026-05-08 12:16 54.13074 23.08714 30130 ft 420 kts 236°
2026-05-08 12:16 54.11649 23.04331 30341 ft 421 kts 236°
2026-05-08 12:16 54.10207 22.99979 30535 ft 422 kts 232°
2026-05-08 12:16 54.08471 22.96066 30711 ft 417 kts 223°
2026-05-08 12:17 54.06370 22.92724 30909 ft 412 kts 213°
2026-05-08 12:17 54.04010 22.90063 31095 ft 408 kts 204°
2026-05-08 12:17 54.01427 22.88105 31288 ft 404 kts 195°
2026-05-08 12:17 53.98754 22.86861 31478 ft 402 kts 189°
2026-05-08 12:18 53.96009 22.85809 31713 ft 401 kts 189°
2026-05-08 12:18 53.93317 22.84795 31942 ft 401 kts 189°
2026-05-08 12:18 53.90584 22.83766 32194 ft 400 kts 189°
2026-05-08 12:18 53.87871 22.82741 32456 ft 399 kts 189°
2026-05-08 12:19 53.85188 22.81725 32703 ft 398 kts 189°
2026-05-08 12:19 53.82478 22.80702 32939 ft 397 kts 189°
2026-05-08 12:19 53.79808 22.79693 33174 ft 396 kts 189°
2026-05-08 12:19 53.77122 22.78681 33422 ft 395 kts 190°
2026-05-08 12:20 53.74444 22.77673 33638 ft 395 kts 189°
2026-05-08 12:20 53.71801 22.76678 33859 ft 394 kts 189°
2026-05-08 12:20 53.69110 22.75666 34084 ft 393 kts 190°
2026-05-08 12:20 53.66473 22.74674 34291 ft 392 kts 190°
2026-05-08 12:21 53.63834 22.73683 34472 ft 392 kts 190°
2026-05-08 12:21 53.61161 22.72684 34604 ft 394 kts 190°
2026-05-08 12:21 53.58503 22.71692 34735 ft 394 kts 190°
2026-05-08 12:21 53.55819 22.70690 34814 ft 395 kts 190°
2026-05-08 12:22 53.50457 22.68692 34944 ft 397 kts 190°
2026-05-08 12:22 53.45071 22.66690 35101 ft 400 kts 191°
2026-05-08 12:23 53.39650 22.64678 35222 ft 402 kts 191°
2026-05-08 12:23 53.34177 22.62654 35364 ft 404 kts 191°
2026-05-08 12:24 53.28703 22.60635 35475 ft 406 kts 191°
2026-05-08 12:24 53.23194 22.58607 35583 ft 409 kts 191°
2026-05-08 12:25 53.17602 22.56554 35726 ft 411 kts 191°
2026-05-08 12:25 53.12040 22.54519 35849 ft 413 kts 192°
2026-05-08 12:26 53.09225 22.53489 36191 ft 414 kts 192°
2026-05-08 12:26 53.06456 22.52478 36116 ft 414 kts 192°
2026-05-08 12:26 53.00854 22.50436 36072 ft 413 kts 192°
2026-05-08 12:27 52.95227 22.48394 36058 ft 414 kts 191°
2026-05-08 12:27 52.89616 22.46365 36067 ft 414 kts 192°
2026-05-08 12:28 52.83984 22.44335 36034 ft 415 kts 192°
2026-05-08 12:28 52.78352 22.42234 36049 ft 416 kts 194°
2026-05-08 12:29 52.72854 22.39368 36046 ft 418 kts 199°
2026-05-08 12:29 52.67374 22.36206 36048 ft 419 kts 199°
2026-05-08 12:30 52.61865 22.33045 36053 ft 420 kts 198°
2026-05-08 12:30 52.56375 22.29896 36047 ft 420 kts 198°
2026-05-08 12:31 52.50874 22.26744 36053 ft 421 kts 198°
2026-05-08 12:31 52.45361 22.23595 36050 ft 422 kts 198°
2026-05-08 12:32 52.39808 22.20432 36047 ft 422 kts 199°
2026-05-08 12:32 52.34330 22.17116 36049 ft 422 kts 202°
2026-05-08 12:33 52.29079 22.12939 36046 ft 424 kts 208°
2026-05-08 12:33 52.24031 22.07972 36041 ft 426 kts 211°
2026-05-08 12:34 52.18995 22.02955 36053 ft 426 kts 211°
2026-05-08 12:34 52.13806 21.98290 36049 ft 426 kts 205°
2026-05-08 12:35 52.08473 21.94220 36052 ft 426 kts 205°
2026-05-08 12:35 52.03120 21.90132 36047 ft 427 kts 205°
2026-05-08 12:36 51.97757 21.86060 36052 ft 428 kts 205°
2026-05-08 12:36 51.92394 21.81997 36054 ft 429 kts 205°
2026-05-08 12:37 51.86976 21.77907 36056 ft 429 kts 205°
2026-05-08 12:37 51.81587 21.73848 36058 ft 429 kts 206°
2026-05-08 12:38 51.76186 21.69792 36057 ft 429 kts 206°
2026-05-08 12:38 51.70772 21.65847 36061 ft 429 kts 204°
2026-05-08 12:39 51.65302 21.62016 36061 ft 428 kts 204°
2026-05-08 12:39 51.59875 21.58221 36053 ft 429 kts 205°
2026-05-08 12:40 51.54414 21.54403 36056 ft 430 kts 205°
2026-05-08 12:40 51.48926 21.50573 36061 ft 430 kts 205°
2026-05-08 12:41 51.43473 21.46775 36062 ft 431 kts 205°
2026-05-08 12:41 51.37989 21.42967 36059 ft 431 kts 205°
2026-05-08 12:42 51.32500 21.39163 36063 ft 431 kts 205°
2026-05-08 12:42 51.27034 21.35385 36066 ft 431 kts 205°
2026-05-08 12:43 51.21550 21.31607 36066 ft 431 kts 205°
2026-05-08 12:43 51.16050 21.27825 36066 ft 431 kts 205°
2026-05-08 12:44 51.10552 21.24057 36066 ft 432 kts 205°
2026-05-08 12:44 51.05048 21.20293 36065 ft 433 kts 205°
2026-05-08 12:45 50.99511 21.16515 36063 ft 433 kts 205°
2026-05-08 12:45 50.94010 21.12771 36065 ft 433 kts 205°
2026-05-08 12:46 50.88477 21.09017 36074 ft 433 kts 205°
2026-05-08 12:46 50.82941 21.05272 36079 ft 433 kts 206°
2026-05-08 12:47 50.77446 21.01561 36071 ft 433 kts 206°
2026-05-08 12:47 50.71920 20.97841 36082 ft 432 kts 206°
2026-05-08 12:48 50.66427 20.94153 36083 ft 432 kts 206°
2026-05-08 12:48 50.60890 20.90443 36081 ft 432 kts 206°
2026-05-08 12:49 50.55388 20.86767 36077 ft 432 kts 206°
2026-05-08 12:49 50.49850 20.83075 36077 ft 431 kts 206°
2026-05-08 12:50 50.44382 20.79443 36075 ft 431 kts 206°
2026-05-08 12:50 50.38871 20.75787 36075 ft 430 kts 206°
2026-05-08 12:51 50.30633 20.70342 36072 ft 431 kts 206°
2026-05-08 12:52 50.25109 20.66703 36079 ft 431 kts 206°
2026-05-08 12:52 50.16861 20.61290 36081 ft 431 kts 207°
2026-05-08 12:53 50.11331 20.57689 36075 ft 431 kts 206°
2026-05-08 12:53 50.05661 20.54639 36068 ft 432 kts 202°
2026-05-08 12:54 49.99976 20.51745 36079 ft 432 kts 202°
2026-05-08 12:54 49.94295 20.48864 36069 ft 432 kts 202°
2026-05-08 12:55 49.88569 20.45973 36095 ft 432 kts 202°
2026-05-08 12:55 49.82904 20.43120 36065 ft 432 kts 202°
2026-05-08 12:56 49.77204 20.40258 36081 ft 432 kts 203°
2026-05-08 12:56 49.71503 20.37403 36072 ft 431 kts 203°
2026-05-08 12:57 49.65819 20.34564 36068 ft 431 kts 202°
2026-05-08 12:57 49.60231 20.31779 36069 ft 430 kts 202°
2026-05-08 12:58 49.54556 20.28958 36063 ft 430 kts 202°
2026-05-08 12:58 49.48882 20.26143 36065 ft 429 kts 202°
2026-05-08 12:59 49.43205 20.23337 36072 ft 429 kts 202°
2026-05-08 12:59 49.37562 20.20552 36065 ft 430 kts 202°
2026-05-08 13:00 49.34724 20.19156 35866 ft 429 kts 203°
2026-05-08 13:00 49.31851 20.17811 35948 ft 431 kts 200°
2026-05-08 13:00 49.25997 20.15733 36050 ft 435 kts 197°
2026-05-08 13:01 49.20083 20.13784 36072 ft 434 kts 197°
2026-05-08 13:01 49.14188 20.11846 36084 ft 434 kts 197°
2026-05-08 13:02 49.08293 20.09915 36087 ft 433 kts 197°
2026-05-08 13:02 49.02419 20.07995 36085 ft 433 kts 197°
2026-05-08 13:03 48.96533 20.06080 35777 ft 435 kts 198°
2026-05-08 13:03 48.93598 20.05128 35356 ft 436 kts 198°
2026-05-08 13:03 48.90623 20.04165 34795 ft 439 kts 198°
2026-05-08 13:04 48.87659 20.03207 34102 ft 437 kts 199°
2026-05-08 13:04 48.84711 20.02255 33405 ft 435 kts 199°
2026-05-08 13:04 48.81776 20.01304 32738 ft 435 kts 199°
2026-05-08 13:04 48.78798 20.00341 32041 ft 434 kts 199°
2026-05-08 13:05 48.75888 19.99401 31326 ft 435 kts 199°
2026-05-08 13:05 48.72946 19.98453 30640 ft 433 kts 199°
2026-05-08 13:05 48.70027 19.97516 30214 ft 426 kts 199°
2026-05-08 13:05 48.67152 19.96591 29791 ft 420 kts 199°
2026-05-08 13:06 48.64319 19.95679 29322 ft 416 kts 199°
2026-05-08 13:06 48.61500 19.94772 28869 ft 412 kts 199°
2026-05-08 13:06 48.58739 19.93885 28394 ft 408 kts 199°
2026-05-08 13:06 48.55957 19.92994 27919 ft 404 kts 198°
2026-05-08 13:07 48.53230 19.92120 27445 ft 401 kts 198°
2026-05-08 13:07 48.50539 19.91260 26981 ft 398 kts 198°
2026-05-08 13:07 48.47842 19.90401 26485 ft 395 kts 198°
2026-05-08 13:07 48.45192 19.89555 26008 ft 393 kts 198°
2026-05-08 13:08 48.42531 19.88708 25543 ft 390 kts 197°
2026-05-08 13:08 48.39877 19.87863 25061 ft 388 kts 197°
2026-05-08 13:08 48.37260 19.87033 24580 ft 385 kts 197°
2026-05-08 13:08 48.34668 19.86211 24118 ft 382 kts 197°
2026-05-08 13:09 48.32068 19.85387 23641 ft 380 kts 196°
2026-05-08 13:09 48.29481 19.84569 23167 ft 377 kts 196°
2026-05-08 13:09 48.26929 19.83765 22714 ft 374 kts 196°
2026-05-08 13:09 48.24392 19.82965 22268 ft 372 kts 196°
2026-05-08 13:10 48.21891 19.82177 21822 ft 370 kts 196°
2026-05-08 13:10 48.19391 19.81388 21376 ft 367 kts 196°
2026-05-08 13:10 48.16869 19.80644 20924 ft 366 kts 193°
2026-05-08 13:10 48.14382 19.80055 20478 ft 365 kts 192°
2026-05-08 13:11 48.11887 19.79467 20021 ft 363 kts 192°
2026-05-08 13:11 48.09398 19.78882 19570 ft 362 kts 192°
2026-05-08 13:11 48.06905 19.78297 19121 ft 360 kts 192°
2026-05-08 13:11 48.04433 19.77719 18677 ft 358 kts 192°
2026-05-08 13:12 48.01971 19.77144 18234 ft 357 kts 192°
2026-05-08 13:12 47.99514 19.76572 17786 ft 355 kts 192°
2026-05-08 13:12 47.97093 19.76009 17346 ft 354 kts 192°
2026-05-08 13:12 47.94670 19.75445 16913 ft 352 kts 192°
2026-05-08 13:13 47.92283 19.74890 16481 ft 350 kts 191°
2026-05-08 13:13 47.89953 19.74350 16055 ft 348 kts 191°
2026-05-08 13:13 47.87487 19.73776 15602 ft 347 kts 191°
2026-05-08 13:13 47.85115 19.73179 15153 ft 344 kts 196°
2026-05-08 13:14 47.82918 19.71922 14710 ft 339 kts 211°
2026-05-08 13:14 47.81030 19.69920 14272 ft 335 kts 223°
2026-05-08 13:14 47.79203 19.67764 13591 ft 343 kts 211°
2026-05-08 13:14 47.76908 19.66756 12735 ft 355 kts 186°
2026-05-08 13:15 47.74442 19.66645 12351 ft 350 kts 183°
2026-05-08 13:15 47.72042 19.66477 12029 ft 342 kts 185°
2026-05-08 13:15 47.69701 19.66172 11574 ft 333 kts 187°
2026-05-08 13:15 47.67425 19.65769 11162 ft 324 kts 189°
2026-05-08 13:16 47.65231 19.65316 10712 ft 317 kts 189°
2026-05-08 13:16 47.63096 19.64840 10233 ft 311 kts 190°
2026-05-08 13:16 47.60968 19.64344 9760 ft 305 kts 190°
2026-05-08 13:16 47.58901 19.63851 9302 ft 300 kts 190°
2026-05-08 13:17 47.56847 19.63357 8851 ft 295 kts 190°
2026-05-08 13:17 47.54861 19.62876 8416 ft 290 kts 190°
2026-05-08 13:17 47.52896 19.62399 7987 ft 285 kts 191°
2026-05-08 13:17 47.50941 19.61925 7540 ft 281 kts 190°
2026-05-08 13:18 47.49036 19.61461 7064 ft 279 kts 190°
2026-05-08 13:18 47.47132 19.60999 6622 ft 278 kts 191°
2026-05-08 13:18 47.45210 19.60532 6254 ft 276 kts 190°
2026-05-08 13:18 47.43342 19.60079 5884 ft 275 kts 190°
2026-05-08 13:19 47.41460 19.59623 5497 ft 274 kts 190°
2026-05-08 13:19 47.39585 19.59169 5117 ft 272 kts 190°
2026-05-08 13:19 47.37716 19.58716 4794 ft 268 kts 190°
2026-05-08 13:19 47.35939 19.58138 4528 ft 262 kts 203°
2026-05-08 13:20 47.34415 19.56726 4236 ft 255 kts 223°
2026-05-08 13:20 47.33114 19.54969 3923 ft 252 kts 225°
2026-05-08 13:20 47.31847 19.53208 3544 ft 253 kts 225°
2026-05-08 13:20 47.30674 19.51317 3154 ft 252 kts 243°
2026-05-08 13:21 47.30343 19.48872 2857 ft 240 kts 283°
2026-05-08 13:21 47.31081 19.46833 2844 ft 219 kts 314°
2026-05-08 13:21 47.32131 19.45372 2995 ft 199 kts 319°
2026-05-08 13:21 47.33120 19.44043 2898 ft 183 kts 317°
2026-05-08 13:22 47.33999 19.42777 2733 ft 170 kts 315°
2026-05-08 13:22 47.34790 19.41549 2506 ft 156 kts 314°
2026-05-08 13:22 47.35503 19.40400 2314 ft 149 kts 313°
2026-05-08 13:22 47.36190 19.39283 2113 ft 144 kts 313°
2026-05-08 13:23 47.36861 19.38188 1936 ft 143 kts 313°
2026-05-08 13:23 47.37535 19.37093 1757 ft 143 kts 313°
2026-05-08 13:23 47.38205 19.36006 1576 ft 143 kts 313°
2026-05-08 13:23 47.38869 19.34932 1393 ft 142 kts 313°
2026-05-08 13:24 47.39540 19.33849 1201 ft 142 kts 311°
2026-05-08 13:24 47.40198 19.32752 1002 ft 142 kts 311°
2026-05-08 13:24 47.40866 19.31681 826 ft 141 kts 313°
2026-05-08 13:24 47.41542 19.30610 648 ft 141 kts 312°
2026-05-08 13:25 47.42200 19.29542 470 ft 141 kts 312°
2026-05-08 13:25 47.42819 19.28541 424 ft 111 kts 311°
2026-05-08 13:25 47.43225 19.27885 442 ft 60 kts 310°
2026-05-08 13:25 47.43356 19.27493 453 ft 27 kts 282°
2026-05-08 13:26 47.43395 19.27241 460 ft 22 kts 282°
2026-05-08 13:26 47.43425 19.27036 466 ft 18 kts 285°
2026-05-08 13:26 47.43490 19.26895 469 ft 15 kts 312°
2026-05-08 13:26 47.43560 19.26783 472 ft 14 kts 312°
2026-05-08 13:27 47.43629 19.26672 474 ft 14 kts 312°
2026-05-08 13:27 47.43704 19.26551 476 ft 16 kts 312°
2026-05-08 13:27 47.43751 19.26451 477 ft 8 kts 276°
2026-05-08 13:27 47.43715 19.26371 477 ft 10 kts 220°
2026-05-08 13:28 47.43648 19.26372 477 ft 11 kts 133°
2026-05-08 13:28 47.43612 19.26428 477 ft 2 kts 133°
2026-05-08 13:28 47.43593 19.26456 476 ft 5 kts 134°
2026-05-08 13:28 47.43571 19.26473 476 ft 3 kts 191°
2026-05-08 13:29 47.43549 19.26449 476 ft 2 kts 223°
2026-05-08 13:29 47.43542 19.26440 476 ft 0 kts 223°